[Iaude] MPEC P31: 2024 PA [a=2.11,e=0.50,i=9.3,H=24.9]

mpec at cfa.harvard.edu mpec at cfa.harvard.edu
Fri Aug 2 14:17:24 EDT 2024


M.P.E.C. 2024-P31                                Issued 2024 August 2, 18:15 UT

     The Minor Planet Electronic Circulars contain information on unusual
         minor planets, routine data on comets and natural satellites,
         and occasional editorial announcements.  They are published
    on behalf of Division F of the International Astronomical Union by the
          Minor Planet Center, Smithsonian Astrophysical Observatory,
                          Cambridge, MA 02138, U.S.A.
			  
             Prepared using the Tamkin Foundation Computer Network

                              MPC at CFA.HARVARD.EDU
            URL https://www.minorplanetcenter.net/    ISSN 1523-6714

                                    2024 PA                                     


Observations:
     K24P00A  C2024 06 28.39726016 19 37.851+20 41 48.12         22.53GVEP031F51
     K24P00A  C2024 06 28.42370216 19 38.366+20 41 44.45         23.03GVEP031F51
     K24P00A  C2024 06 28.42798516 19 38.464+20 41 43.65         22.91GVEP031F51
     K24P00A  C2024 06 28.44033116 19 38.708+20 41 41.05         22.55GVEP031F51
     K24P00A  C2024 07 03.39580916 24 10.456+20 20 15.91         22.81GVEP031F51
     K24P00A  C2024 07 03.40843916 24 11.066+20 20 09.70         22.50GVEP031F51
     K24P00A  C2024 07 03.42114016 24 11.692+20 20 03.07         22.48GVEP031F51
     K24P00A  C2024 07 03.43390716 24 12.366+20 19 56.44         22.77GVEP031F51
     K24P00A* C2024 08 01.91273819 49 25.003-15 44 18.31         18.90oVEP031M22
     K24P00A  C2024 08 01.91762719 49 30.581-15 45 16.63         18.93oVEP031M22
     K24P00A  C2024 08 01.92373719 49 37.466-15 46 29.42         19.08oVEP031M22
     K24P00A  C2024 08 01.93586919 49 51.190-15 48 51.59         18.90oVEP031M22
     K24P00A KC2024 08 02.02135119 51 33.826-16 09 35.17         18.9 GVEP031J95
     K24P00A KC2024 08 02.02334319 51 36.168-16 09 58.00         18.9 GVEP031J95
     K24P00A KC2024 08 02.02532319 51 38.458-16 10 21.14         18.7 GVEP031J95
     K24P00A KC2024 08 02.02734919 51 40.826-16 10 44.83         18.9 GVEP031J95
     K24P00A KB2024 08 02.03099419 51 44.37 -16 11 16.7          18.6 GXEP031I93
     K24P00A KB2024 08 02.03291419 51 46.63 -16 11 39.0          19.0 GXEP031I93
     K24P00A KB2024 08 02.03482119 51 48.84 -16 12 01.5          18.3 GXEP031I93
     K24P00A KB2024 08 02.03665819 51 50.92 -16 12 22.3          18.7 GXEP031I93
     K24P00A  C2024 08 02.03677 19 51 47.01 -16 08 32.1          19.0 GVEP031M28
     K24P00A  C2024 08 02.03880 19 51 49.35 -16 08 55.4          19.0 GVEP031M28
     K24P00A  C2024 08 02.04081 19 51 51.70 -16 09 18.8          18.8 GVEP031M28
     K24P00A KB2024 08 02.16177 19 54 31.692-16 36 49.32         18.3 RZEP031H36
     K24P00A KB2024 08 02.16669 19 54 37.378-16 37 47.78         18.8 RZEP031H36
     K24P00A KC2024 08 02.26681419 56 32.05 -16 57 28.3          19.4 GVEP031H21
     K24P00A KC2024 08 02.26879119 56 34.35 -16 57 51.3          19.5 GVEP031H21
     K24P00A KC2024 08 02.27076719 56 36.64 -16 58 14.2          19.5 GVEP031H21
     K24P00A KC2024 08 02.27274319 56 38.96 -16 58 37.2          19.5 GVEP031H21
     K24P00A KC2024 08 02.27425819 56 40.74 -16 58 55.0          19.5 GVEP031H21
     K24P00A KB2024 08 02.51650320 01 48.458-17 46 01.81         18.5 VZEP031Q06
     K24P00A KC2024 08 02.51870 20 01 48.44 -17 43 04.1          19.8 VqEP031E23
     K24P00A KB2024 08 02.52413520 01 57.448-17 47 31.40         18.8 VZEP031Q06
     K24P00A KB2024 08 02.53176820 02 06.375-17 49 01.24         18.3 VZEP031Q06
     K24P00A KC2024 08 02.53259 20 02 04.72 -17 45 46.3          18.7 VqEP031E23
     K24P00A KC2024 08 02.54648 20 02 20.99 -17 48 27.8          18.7 VqEP031E23
     K24P00A KC2024 08 02.56471 20 02 38.954-17 51 25.49         18.7 GVEP031R65
     K24P00A KC2024 08 02.56616 20 02 40.658-17 51 41.94         18.7 GVEP031R65
     K24P00A KC2024 08 02.56760 20 02 42.358-17 51 58.79         18.7 GVEP031R65
     K24P00A KC2024 08 02.56905 20 02 44.090-17 52 15.24         18.6 GVEP031R65

Observer details:
E23 Arcadia.  Observer A. Hidas.  0.35-m f/1.9 reflector + CCD.
F51 Pan-STARRS 1, Haleakala.  Observers J. Herman, T. Lowe, P. Minguez, A.
    Schultz, I. Smith.  Measurers K. Chambers, T. de Boer, J. Fairlamb, H.
    Gao, M. Huber, C.-C. Lin, E. Magnier, Y. Ramanjooloo, R. Wainscoat, R.
    Weryk.  1.8-m Ritchey-Chretien + CCD.
H21 Astronomical Research Observatory, Westfield.  Observer R. Holmes.
    Measurers T. Linder, R. Holmes.  0.81-m f/4.0 astrograph + CCD.
H36 Sandlot Observatory, Scranton.  Observer G. Hug.  0.56-m f/4.25 reflector
    + CMO.
I93 St Pardon de Conques.  Observer F. Losse.  0.40-m f/3.7 reflector + CMO.
J95 Great Shefford.  Observer P. Birtwhistle.  0.41-m f/6.3 Schmidt-Cassegrain
    + CCD.
M22 ATLAS South Africa, Sutherland.  Observers L. Denneau, R. Siverd, J.
    Tonry, H. Weiland.  Measurers L. Denneau, N. Erasmus, A. Fitzsimmons, J.
    Robinson, R. Siverd, J. Tonry, H. Weiland.  0.5-m Reflector + CCD.
M28 Lesedi Telescope-SAAO Observatory, Sutherland.  Observers N. Erasmus, S.
    Potter, C. van Gend, S. Chandra, H. Worters.  Measurers T. Ngwane, N.
    Erasmus.  1.0-m f/8 Reflector + CCD.
Q06 Tarui Observatory, Tarui.  Observer H. Watanabe.  0.35-m f/1.9 Schmidt-
    Cassegrain + CMO.
R65 R. F. Joyce Observatory, Christchurch.  Observer R. B. Glassey.  0.4-m
    f/8.0 Schmidt Cassegrain + CCD.

Orbital elements:
2024 PA                                                  Earth MOID = 0.0449 AU
Epoch 2024 Oct. 17.0 TT = JDT 2460600.5                 Veres                   
M  25.21156              (2000.0)            P               Q                  
n   0.32243790     Peri.  176.28487     +0.60065888     +0.79010102             
a   2.1062277      Node   130.58624     -0.73761907     +0.60664147             
e   0.4973272      Incl.    9.26490     -0.30842667     +0.08790056             
P   3.06           H   24.92          G   0.15           U   7                  
Residuals in seconds of arc
240628 F51  0.1+  0.1+    240802 J95  0.0   0.0     240802 H21  0.0   0.1-
240628 F51  0.2-  0.2-    240802 J95  0.2+  0.1+    240802 H21  0.2+  0.2-
240628 F51  0.0   0.4-    240802 I93  0.4-  0.1+    240802 Q06  0.2+  0.0
240628 F51  0.4-  1.2-    240802 I93  0.2+  0.3+    240802 E23  0.2-  0.4-
240703 F51  0.1-  0.1+    240802 I93  0.2+  0.1+    240802 Q06  0.2+  0.3+
240703 F51  0.1-  0.2+    240802 I93 (0.4-  0.8+)   240802 Q06  0.6-  0.4+
240703 F51  0.1-  0.1+    240802 M28  0.1+  0.4-    240802 E23  0.1+  0.1+
240703 F51  0.4+  0.1+    240802 M28  0.2-  0.2-    240802 E23  0.2+  0.8+
240801 M22  0.2+  0.5+    240802 M28  0.1-  0.2-    240802 R65  0.2+  0.2-
240801 M22  0.8+  0.0     240802 H36  0.1+  0.1-    240802 R65  0.0   0.0
240801 M22  0.1+  0.6-    240802 H36  0.2-  0.1-    240802 R65  0.3-  0.2-
240801 M22  0.5-  0.3+    240802 H21  0.0   0.3-    240802 R65  0.1-  0.0
240802 J95  0.3-  0.7-    240802 H21  0.0   0.2-
240802 J95  0.2+  0.1-    240802 H21  0.2-  0.1-

Ephemeris:
2024 PA                  a,e,i = 2.11, 0.50, 9                   q = 1.0587
Date    TT    R. A. (2000) Decl.     Delta      r    Elong.  Phase     V
2024 07 03    16 23 44.3 +20 23 10   0.1494  1.1073   124.0    49.5    22.9
...
2024 07 18    17 02 31.3 +14 38 29   0.08706 1.0693   125.6    50.6    21.6
...
2024 07 26    18 02 21.5 +03 51 53   0.05846 1.0601   138.5    39.4    20.4
...
2024 08 01    19 31 34.9 -12 44 42   0.04605 1.0588   161.5    17.7    19.3
2024 08 02    19 51 09.8 -16 02 16   0.04541 1.0590   166.0    13.4    19.1
2024 08 03    20 11 48.0 -19 16 23   0.04525 1.0593   170.0     9.5    19.0
...
2024 08 09    22 17 25.9 -32 56 24   0.05411 1.0642   158.0    20.9    19.7
...
2024 08 17    00 02 52.3 -36 40 27   0.08186 1.0778   141.7    35.6    21.1
...
2024 09 01    01 05 44.3 -34 58 47   0.1486  1.1234   137.5    37.3    22.5

M. P. C. Staff               (C) Copyright 2024 MPC           M.P.E.C. 2024-P31





More information about the Iaude mailing list